Regional Weather Roundup
Issued by NWS Green Bay, WI

Home | Current Version | Previous Version | Text Only | Print | Product List | Glossary On
Versions: 1 2 3 4 5 6 7 8 9 10 11 12 13 14 15 16 17 18 19 20 21 22 23 24 25 26 27 28 29 30 31 32 33 34 35 36 37 38 39 40 41 42 43 44 45 46 47 48 49 50
000
ASUS43 KGRB 251859
RWRGRB

NORTH-CENTRAL AND NORTHEAST WISCONSIN REGIONAL WEATHER ROUNDUP
NATIONAL WEATHER SERVICE GREEN BAY WI
200 PM CDT FRI JUL 25 2014

WIZ005-009-010>012-018-019-252000-
NORTH CENTRAL WISCONSIN

CITY           SKY/WX    TMP DP  RH WIND       PRES   REMARKS
IRONWOOD       NOT AVBL
MANITOWISH WTR NOT AVBL
ARBOR VITAE    NOT AVBL
EAGLE RIVER    NOT AVBL
LAND O LAKES   NOT AVBL
RHINELANDER    CLOUDY    67  60  78 SW9       29.89F
PHILLIPS       CLOUDY    67  62  83 S7        29.87R
ANTIGO         NOT AVBL
TOMAHAWK       CLOUDY    67  61  78 CALM      29.89R
MERRILL        NOT AVBL
$$

WIZ013-073-252000-
NORTHEAST WISCONSIN

CITY           SKY/WX    TMP DP  RH WIND       PRES   REMARKS
IRON MOUNTAIN  CLOUDY    75  59  57 S13       29.87F
MARINETTE      CLOUDY    72  57  60 SW12      29.89R
$$

WIZ017-030-035>037-045-252000-
CENTRAL WISCONSIN

CITY           SKY/WX    TMP DP  RH WIND       PRES   REMARKS
MEDFORD        NOT AVBL
WAUSAU         CLOUDY    68  60  75 SW12      29.87F
MOSINEE        CLOUDY    66  63  88 SW10      29.91S
MARSHFIELD     CLOUDY    67  61  81 S9        29.89S
WISC RAPIDS    CLOUDY    67  60  78 S9        29.91F
STEVENS POINT  NOT AVBL
WAUPACA        CLOUDY    73  59  60 S12G20    29.90F
SHAWANO        CLOUDY    71  59  66 S9        29.91S
CLINTONVILLE   CLOUDY    70  59  68 S8        29.89F
$$

WIZ038-039-048-051-252000-
FOX VALLEY

CITY           SKY/WX    TMP DP  RH WIND       PRES   REMARKS
NWS GREEN BAY  CLOUDY    69  57  65 SW13G22   29.92R
APPLETON       PTSUNNY   68  55  64 SW15      29.93R
OSHKOSH        CLOUDY    69  59  70 SW9       29.92R
FOND DU LAC    CLOUDY    69  59  70 SW6       29.94R
$$

WIZ022-050-052-252000-
EAST CENTRAL WISCONSIN

CITY           SKY/WX    TMP DP  RH WIND       PRES   REMARKS
STURGEON BAY   CLOUDY    72  55  56 SW12G17   29.92S
MANITOWOC      NOT AVBL
SHEBOYGAN      CLOUDY    68  57  68 SW9       29.93F
$$

LMZ563-521-522-541>543-252000-
LAKESHORE

STATION/POSITION TIME  TEMP    WIND        PRES    VSBY  WAVE
                       AIR SEA DIR/SP/G                  HT/PER
                 (UTC) (F)     (DEG/KT/KT) (MB)    (MI)  (FT/S)
SHEBOYGAN LKSHOR 1800   64     160/ 15/ 16 1013.8F
KEWAUNEE LKSHORE 1800   56     170/  9/ 10 1014.1F
NORTHPORT PIER   1800   67     160/  4/  8 1012.9S
N MID LAKE BUOY  1800   59 56  200/ 16/ 17 1012.4F         3/ 4
CHAMBERS ISLAND  1800   69     190/  3/ 11 1012.5F
MENOMINEE LKSHOR 1800   69     190/  8/ 13 1013.3F
$$


USA.gov is the U.S. government's official web portal to all federal, state and local government web resources and services.